This is the latest recevied weather packets stored in our database for station/object OE-11213. If no packets are shown the sender has not sent any weather packets the latest 10 day(s).
| Time | Temp. | Humidity | Pressure | Rain* | Wind** | Luminosity | Snow |
|---|---|---|---|---|---|---|---|
| 1787995530 | 23.89° C | 45% | 1015.8 hPa | 0 mm | - | 500 W/m² | - |
| 1787994703 | 23.89° C | 45% | 1015.9 hPa | 0 mm | - | 486 W/m² | - |
| 1787994330 | 23.89° C | 46% | 1015.8 hPa | 0 mm | - | 638 W/m² | - |
| 1787993730 | 22.78° C | 48% | 1016 hPa | 0 mm | - | 377 W/m² | - |
| 1787992902 | 22.78° C | 50% | 1016 hPa | 0 mm | - | 348 W/m² | - |
| 1787992529 | 22.22° C | 50% | 1016.2 hPa | 0 mm | - | 239 W/m² | - |
| 1787991929 | 22.22° C | 53% | 1016.1 hPa | 0 mm | - | 290 W/m² | - |
| 1787991103 | 21.67° C | 52% | 1016 hPa | 0 mm | - | 355 W/m² | - |
| 1787990729 | 21.67° C | 53% | 1015.9 hPa | 0 mm | - | 355 W/m² | - |
| 1787990130 | 21.67° C | 54% | 1016 hPa | 0 mm | - | 268 W/m² | - |
| 1787989302 | 21.11° C | 55% | 1016 hPa | 0 mm | - | 247 W/m² | - |
| 1787988329 | 20.56° C | 64% | 1015.9 hPa | 0 mm | - | 254 W/m² | - |
| 1787987503 | 20.56° C | 67% | 1015.9 hPa | 0 mm | - | 181 W/m² | - |
| 1787987130 | 20° C | 66% | 1015.9 hPa | 0 mm | - | 174 W/m² | - |
| 1787986530 | 20° C | 66% | 1016.2 hPa | 0 mm | - | 152 W/m² | - |
| 1787985703 | 20° C | 68% | 1016.3 hPa | 0 mm | - | 145 W/m² | - |
| 1787985329 | 20° C | 69% | 1016.3 hPa | 0 mm | - | 167 W/m² | - |
| 1787984730 | 20° C | 70% | 1016 hPa | 0 mm | - | 123 W/m² | - |
| 1787983903 | 20° C | 71% | 1016.2 hPa | 0 mm | - | 87 W/m² | - |
| 1787982930 | 19.44° C | 74% | 1016.1 hPa | 0 mm | - | 22 W/m² | - |
| 1787982102 | 19.44° C | 73% | 1016.1 hPa | 0 mm | - | 15 W/m² | - |
| 1787981730 | 20° C | 75% | 1015.8 hPa | 0 mm | - | 7 W/m² | - |
| 1787981129 | 20° C | 75% | 1015.5 hPa | 0 mm | - | 15 W/m² | - |
| 1787980302 | 20° C | 74% | 1015.4 hPa | 0 mm | - | 15 W/m² | - |
| 1787979929 | 19.44° C | 70% | 1015.2 hPa | 0 mm | - | 15 W/m² | - |
* Rain latest hour (hover to see other rain measurements)
** Current wind speed in m/s (hover to see current wind gust speed)